www.pogodaiklimat.ru

Погода и климат >> Архив погоды >> Россия >> Чукотка >> Анадырь


АРХИВ ПОГОДЫ в Анадыре

Время (UTC), дата Ветер
(напр.,м/с)
 
Видим.   Явления Облачность Т
(С)
Тd
(С)
f
(%)
Тe
(С)
Тes
(С)
Комфортность P
(гПа)
Po
(гПа)
Тmin
(С)
Tmax
(С)
R
(мм)
R24
(мм)
S
(см)
06 16.01 З 7
{11}
20 км слабый ливневой снег {метель} 9/8 600 м
[Cb cap Ac trans]
-20.5 -23.0 80 -32 -32 опасность
обморожения
997.5 989.3 -20.0 0.0
09 16.01 З 10-12
{14}
20 км слабый ливневой снег {метель} 10/10 600 м
[Cb cap]
-20.3 -22.2 85 -34 -34 опасность
обморожения
999.0 990.8
12 16.01 З 11-13
{14}
15 км слабый ливневой снег {метель} 10/10 600 м
[Cb cap]
-20.8 -23.3 80 -35 -35 опасность
обморожения
1000.6 992.4
15 16.01 З 11-13
{14}
50 км позёмок {ливн. осадки, метель} 6/3 600 м
[Cb cap Ac trans]
-22.1 -25.4 74 -37 -37 опасность
обморожения
1001.7 993.5
18 16.01 З 10-12
{14}
50 км позёмок {ливн. осадки, метель} 3/0
[Ac trans]
-23.3 -26.5 75 -38 -38 опасность
обморожения
1003.6 995.2 -23.5 0.2 30
21 16.01 СЗ 10-12
{13}
50 км позёмок {метель} 1/0
[Ac trans]
-23.9 -27.1 75 -39 -39 опасность
обморожения
1005.7 997.3 -24.1
00 17.01 СЗ 7
{14}
50 км позёмок {метель} 3/0
[Ac trans]
-24.6 -28.5 70 -38 -38 опасность
обморожения
1007.1 998.7
03 17.01 СЗ 8-11
{13}
50 км позёмок {метель} 3/0
[Ac trans]
-25.2 -29.1 70 -39 -39 опасность
обморожения
1008.0 999.6
06 17.01 З 9-11
{12}
50 км позёмок {метель} 3/0
[Ac trans]
-25.9 -29.8 70 -41 -41 опасность
обморожения
1009.2 1000.8 -23.3
09 17.01 СЗ 5
{12}
50 км {метель} 1/0
[Ac trans]
-26.7 -31.3 65 -38 -38 опасность
обморожения
1010.6 1002.2
12 17.01 СЗ 11-13
{14}
50 км позёмок {метель} 1/0
[Ac trans]
-26.4 -31.0 65 -43 -43 опасность
обморожения
1011.8 1003.4
15 17.01 СЗ 8-10
{14}
50 км позёмок {метель} ясно -27.3 -32.0 64 -42 -42 опасность
обморожения
1012.9 1004.5
18 17.01 СЗ 7
{12}
50 км позёмок {метель} ясно -28.0 -32.6 65 -42 -42 опасность
обморожения
1014.6 1005.9 -28.1 31
21 17.01 СЗ 6
{10}
50 км {метель} ясно -28.4 -32.9 65 -42 -42 опасность
обморожения
1016.3 1007.6 -28.6
00 18.01 СЗ 4
{9}
50 км {метель} ясно -27.7 -33.1 60 -38 -38 опасность
обморожения
1017.2 1008.5
03 18.01 СЗ 4
{8}
50 км 1/0
[Ci fib]
-28.2 -33.6 60 -39 -39 опасность
обморожения
1018.0 1009.3
06 18.01 СЗ 5
{8}
50 км ясно -29.4 -33.9 65 -42 -42 опасность
обморожения
1018.8 1010.1 -27.3
09 18.01 СЗ 5
{7}
50 км ясно -30.2 -34.6 65 -43 -43 опасность
обморожения
1019.7 1011.0
12 18.01 СЗ 6
{8}
50 км ясно -30.7 -34.3 71 -45 -45 опасность
обморожения
1020.6 1011.9
15 18.01 СЗ 8
{10}
50 км ясно -31.0 -35.5 64 -47 -47 опасность
обморожения
1021.0 1012.3
18 18.01 СЗ 9-10
{10}
50 км ясно -31.9 -35.7 69 -49 -49 опасность
обморожения
1021.9 1013.2 -32.0 31
21 18.01 СЗ 8
{10}
50 км 3/0
[Ci fib]
-32.0 -35.7 70 -48 -48 опасность
обморожения
1023.3 1014.6 -32.3
00 19.01 СЗ 9
{10}
20 км 5/0
[Ci fib]
-31.6 -35.2 70 -48 -48 опасность
обморожения
1024.5 1015.7
03 19.01 СЗ 8
{10}
50 км 8/0
[Ac trans Ci fib]
-30.8 -34.5 70 -46 -46 опасность
обморожения
1025.4 1016.6
06 19.01 СЗ 6
{10}
50 км 6/0
[Ac trans Ci fib]
-31.1 -34.7 70 -45 -45 опасность
обморожения
1026.8 1018.0 -30.5
09 19.01 СЗ 9
{10}
50 км 5/0
[Ci fib]
-31.1 -34.7 70 -48 -48 опасность
обморожения
1027.7 1018.9
12 19.01 СЗ 8
{10}
50 км 3/0
[Ci fib]
-31.8 -35.4 70 -48 -48 опасность
обморожения
1028.5 1019.7
15 19.01 СЗ 6
{9}
50 км 8/0
[Ci fib]
-31.3 -35.0 70 -45 -45 опасность
обморожения
1029.6 1020.8
18 19.01 СЗ 4
{8}
50 км 8/0
[Ci fib]
-31.6 -35.2 70 -43 -43 опасность
обморожения
1029.8 1021.0 -32.2 31
21 19.01 СВ 1
{6}
50 км 5/0
[Ac trans Ci fib]
-28.4 -32.2 70 -32 -32 опасность
обморожения
1030.4 1021.6
00 20.01 Ю 1
{2}
50 км {ливн. осадки} 10/10 600 м
[Cb cap]
-26.4 -31.0 65 -30 -30 по сезону 1030.2 1021.6
03 20.01 ЮЗ 5
{8}
50 км 8/4 600 м
[Cb cap Ac trans]
-22.5 -25.7 75 -33 -33 опасность
обморожения
1029.7 1021.3
06 20.01 СЗ 1
{6}
50 км 8/3 600 м
[Sc Ac trans]
-21.4 -24.7 75 -25 -25 тепло 1029.9 1021.5 -20.3 0.0
09 20.01 С 2
{4}
50 км 6/3 600 м
[Sc Ac trans]
-19.7 -23.0 75 -25 -25 тепло 1030.1 1021.7
12 20.01 СВ 2
{8}
20 км слабый ливневой снег 8/8 600 м
[Cb cap]
-20.4 -23.7 75 -26 -26 тепло 1031.1 1022.7
15 20.01 СЗ 5
{7}
50 км {ливн. осадки} 6/6 600 м
[Cb cap]
-22.4 -25.6 75 -33 -33 опасность
обморожения
1031.3 1022.9
18 20.01 СЗ 7
{8}
50 км {ливн. осадки} 8/5 600 м
[Cb cap Ac trans]
-22.2 -25.4 75 -35 -35 опасность
обморожения
1031.5 1023.1 -22.6 0.0 31
21 20.01 СЗ 5
{8}
50 км 8/0
[Ac trans Ci fib]
-22.0 -25.2 75 -33 -33 опасность
обморожения
1032.1 1023.7
00 21.01 В 1
{6}
50 км 9/9 600 м
[Cb cap]
-19.7 -22.3 80 -23 -23 тепло 1031.6 1023.2
03 21.01 С 1
{4}
20 км слабый ливневой снег 9/9 600 м
[Cb cap]
-16.9 -19.5 80 -20 -20 тепло 1031.2 1022.9
06 21.01 Ю 1
{3}
50 км {ливн. осадки} 9/9 600 м
[Cb cap]
-13.8 -15.8 85 -16 -16 тепло 1031.5 1023.2 -13.6 0.3
09 21.01 Ю 3
{5}
50 км 9/9 600 м
[Cb cap]
-13.2 -15.2 85 -19 -19 тепло 1031.0 1022.7
12 21.01 ЮВ 1
{4}
50 км 8/4 600 м
[Sc Ac trans]
-13.7 -16.4 80 -16 -16 тепло 1030.9 1022.6
15 21.01 СЗ 1
{3}
50 км 9/4 600 м
[Sc Ac trans]
-13.4 -16.1 80 -16 -16 тепло 1030.1 1021.8
18 21.01 СВ 1
{3}
50 км 9/3 600 м
[Sc Ac trans]
-11.9 -15.4 75 -14 -14 тепло 1029.6 1021.5 -14.9 31
21 21.01 ЮЗ 1
{2}
50 км 9/8 600 м
[Sc Ac trans]
-11.3 -14.1 80 -14 -14 тепло 1029.4 1021.3
00 22.01 Ю 2
{4}
50 км {ливн. осадки} 10/10 300 м
[Cb cap]
-10.2 -13.0 80 -15 -15 тепло 1028.7 1020.6
03 22.01 З 2
{5}
20 км слабый ливневой снег 10/10 600 м
[Cb cap]
-9.9 -11.6 87 -14 -14 тепло 1028.1 1020.0
06 22.01 ЮЗ 2
{4}
50 км {ливн. осадки} 10/10 300 м
[Cb cap]
-9.5 -11.1 88 -14 -14 тепло 1027.6 1019.5 -9.3 0.0
09 22.01 СЗ 2
{4}
50 км 10/10 600 м
[Cb cap]
-9.5 -10.7 91 -14 -14 тепло 1027.4 1019.3
12 22.01 штиль 0
{3}
50 км 10/10 600 м
[Cb cap]
-8.5 -10.4 86 -9 -9 тепло 1026.9 1018.8
15 22.01 штиль 0
{3}
20 км слабый ливневой снег 10/10 600 м
[Cb cap]
-8.1 -9.5 90 -9 -9 тепло 1025.6 1017.5
18 22.01 Ю 3
{6}
20 км слабый ливневой снег 10/10 600 м
[Cb cap]
-8.2 -9.6 90 -14 -14 тепло 1024.9 1016.8 -9.9 0.0 31
21 22.01 СЗ 1
{5}
6000 м слабый ливневой снег 10/10 300 м
[Cb cap]
-8.5 -10.0 89 -11 -11 тепло 1024.8 1016.7 -8.8
00 23.01 В 6
{8}
5000 м слабый ливневой снег {метель} 10/10 300 м
[Cb cap]
-5.1 -6.8 88 -13 -13 тепло 1023.7 1015.7

 

Местоположение метеостанции Анадырь (Чукотка, Россия): широта 64.78 долгота 177.50 высота над уровнем моря 61 м.

В архиве по умолчанию представлена погода в Анадыре за последнюю неделю. Архивные данные за месяц целиком и за предыдущие месяцы, начиная с января 2011 года, Вы можете получить, выбрав интересующий диапазон дат из раскрывающегося списка и нажав кнопку "Ввод!".

Внимание! Время в таблицах - всемирное. Для получения местного времени необходимо прибавить поправку, которая в Анадыре равна 12 ч.

Смотрите также архив погоды в соседних городах и на ближайших метеорологических станциях:

Погода в Анадыре АМС (Чукотка, Россия) (7 км)
Погода в Канчалане (Чукотка, Россия) (58 км)
Погода в Танюрере (Чукотка, Россия) (147 км)
Погода в Эньмувееме (Чукотка, Россия) (263 км)
Погода в Маркове (Чукотка, Россия) (337 км)
Погода в Майской (Чукотка, Россия) (457 км)
Погода в Слаутном (Камчатский край, Россия) (504 км)
Погода в Паляваам-Глубокой (Чукотка, Россия) (505 км)
Погода в Илирнее (Чукотка, Россия) (513 км)
Погода в Комсомольской (Чукотка, Россия) (525 км)

Пояснения к столбцам:

Ветер - указаны скорость ветра в м/с - средняя за 10 мин, порывы в срок и между сроками (в фигурных скобках) и направление, откуда дует ветер: С - северный, СВ - северо-восточный, В - восточный, ЮВ - юго-восточный, Ю - южный, ЮЗ - юго-западный, З - западный, СЗ - северо-западный.
Видимость - горизонтальная дальность видимости в метрах или километрах. При видимости от 1 до 10 км при отсутствии осадков обычно наблюдается дымка, при ухудшении видимости до 1 км и менее - туман. В сухую погоду видимость может ухудшаться дымом, пылью или мглою.
Явления - указаны атмосферные явления, наблюдавшиеся в срок или в последний час перед сроком; фигурными скобками обозначены явления, наблюдавшиеся между сроками (за 1-3 часа до срока); квадратными скобками обозначены град или гололедные отложения с указанием их диаметра в мм.
Облачность - указаны через наклонную черту общая и нижняя облачность в баллах и высота нижней границы облаков в метрах; квадратными скобками обозначены формы облаков: Ci - перистые, Cs - перисто-слоистые, Cc - перисто-кучевые, Ac - высококучевые, As - высокослоистые, Sc - слоисто-кучевые, Ns - слоисто-дождевые, Cu - кучевые, Cb - кучево-дождевые. Подробнее классификацию облаков см. в Атласе облаков (PDF).
T - Температура воздуха - температура, измеренная на высоте 2 м над землей.
Td - Температура точки росы - температура, при понижении до которой содержащийся в воздухе водяной пар достигнет насыщения.
f - Относительная влажность воздуха - влажноcть воздуха, измеренная на высоте 2 м над землей.
Te - Эффективная температура - температура, которую ощущает одетый по сезону человек в тени. Характеристика душности погоды. При расчете учитывается влияние влажности воздуха и скорости ветра на теплоощущения человека.
Tes - Эффективная температура на солнце - температура, которую ощущает человек, с поправкой на солнечный нагрев. Характеристика знойности погоды. Зависит от высоты солнца над горизонтом, облачности и скорости ветра. Ночью, в пасмурную погоду, а также при ветре 12 м/с и более поправка равна нулю.
P - Атмосферное давление - приведенное к уровню моря атмосферное давление.
Po - Атмосферное давление - измеренное на уровне метеостанции атмосферное давление.
Tmin - Минимальная температура - минимум температуры воздуха на высоте 2 м над землей.
Tmax - Максимальная температура - максимум температуры воздуха на высоте 2 м над землей.
R - Количество осадков - Количество выпавших осадков за период времени, мм. При наведении курсора мыши на число - период времени, за который выпало указанное количество осадков.
R24 - Количество осадков - Количество выпавших осадков за 24 часа, мм.
S - Снежный покров - Высота снежного покрова, см. При наведении курсора мыши на число - состояние снежного покрова и степень покрытия местности в баллах.